Home   Weather   Wellington   Past weeks
Flag for New Zealand

Past Weather in Wellington, New Zealand — Yesterday and Last 2 Weeks

Now
54 °F

Cool.


Feels Like: 50 °F
Forecast: 61 / 51 °F
Wind: 10 mph from Northeast

Location: Wellington Airport

Current Time: May 21, 2019 at 9:39:05 am

Latest Report: May 21, 2019 at 8:30 am


Visibility: N/A

Pressure: 30.15 "Hg

Humidity: 77%

Dew Point: 46 °F

Location of WellingtonLocation

Past Weather in Wellington — Graph

°F

Wellington Temperature Yesterday

Maximum temperature yesterday: 61 °F (at 11:00 am)
Minimum temperature yesterday: 48 °F (at 12:00 am)
Average temperature yesterday: 55 °F

High & Low Weather Summary for the Past Weeks

 TemperatureHumidityPressure
High66 °F (May 9, 12:30 pm)100% (May 7, 5:00 am)30.45 "Hg (May 7, 5:00 am)
Low45 °F (May 17, 10:00 pm)42% (May 16, 10:30 am)29.39 "Hg (May 13, 12:30 am)
Average57 °F74%30.02 "Hg
* Reported May 6 8:00 am — May 21 8:00 am, Wellington. Weather by CustomWeather, © 2019

Note: Actual official high and low records may vary slightly from our data, if they occured in-between our weather recording intervals... More about our weather records

Advertising

Wellington Weather History for the Previous 24 Hours

Scroll right to see more
 ConditionsComfort  
Time TempWeatherWind HumidityBarometerVisibility
8:00 am
Tue, May 21
54 °FPassing clouds.8 mph77%30.15 "HgN/A
7:30 am54 °FPartly sunny.12 mph77%30.15 "HgN/A
7:00 am52 °FPassing clouds.9 mph82%30.15 "HgN/A
6:30 am52 °FPassing clouds.9 mph82%30.15 "HgN/A
6:00 am52 °FPassing clouds.10 mph82%30.12 "HgN/A
5:30 am54 °FOvercast.10 mph82%30.15 "HgN/A
5:00 am54 °FOvercast.9 mph82%30.15 "HgN/A
4:30 am54 °FOvercast.9 mph82%30.12 "HgN/A
4:00 am54 °FOvercast.6 mph82%30.12 "HgN/A
3:30 am52 °FOvercast.6 mph88%30.15 "HgN/A
3:00 am52 °FMostly cloudy.7 mph88%30.15 "HgN/A
2:30 am52 °FPartly cloudy.6 mph88%30.15 "HgN/A
2:00 am48 °FPassing clouds.8 mph94%30.12 "HgN/A
1:30 am50 °FCool.8 mph88%30.12 "HgN/A
1:00 am50 °FCool.8 mph88%30.12 "HgN/A
12:30 am50 °FPassing clouds.7 mph88%30.15 "HgN/A
12:00 am50 °FCool.6 mph94%30.12 "HgN/A
11:30 pm
Mon, May 20
48 °FCool.5 mph94%30.12 "HgN/A
11:00 pm48 °FPassing clouds.2 mph94%30.12 "HgN/A
10:30 pm50 °FCool.2 mph88%30.12 "HgN/A
10:00 pm48 °FCool.3 mph94%30.12 "HgN/A
9:30 pm50 °FPassing clouds.2 mph88%30.12 "HgN/A
9:00 pm50 °FPassing clouds.2 mph88%30.12 "HgN/A
8:30 pm52 °FPassing clouds.2 mph88%30.12 "HgN/A
8:00 pm54 °FCool.1 mph82%30.12 "HgN/A
7:30 pm54 °FCool.1 mph82%30.09 "HgN/A
7:00 pm54 °FCool.2 mph77%30.09 "HgN/A
6:30 pm55 °FPassing clouds.5 mph72%30.09 "HgN/A
6:00 pm54 °FCool.5 mph77%30.09 "HgN/A
5:30 pm57 °FCool.7 mph72%30.07 "HgN/A
5:00 pm59 °FCool.9 mph68%30.07 "HgN/A
4:30 pm59 °FCool.8 mph68%30.07 "HgN/A
4:00 pm61 °FCool.8 mph63%30.07 "HgN/A
3:30 pm61 °FRefreshingly cool.8 mph59%30.07 "HgN/A
3:00 pm61 °FRefreshingly cool.12 mph59%30.07 "HgN/A
2:30 pm61 °FCool.13 mph63%30.04 "HgN/A
2:00 pm61 °FCool.12 mph63%30.07 "HgN/A
1:30 pm61 °FCool.13 mph63%30.04 "HgN/A
1:00 pm61 °FCool.14 mph63%30.04 "HgN/A
12:30 pm61 °FCool.15 mph63%30.04 "HgN/A
12:00 pm61 °FCool.16 mph63%30.07 "HgN/A
11:30 am61 °FCool.14 mph63%30.07 "HgN/A
11:00 am61 °FCool.15 mph63%30.07 "HgN/A
10:30 am59 °FCool.16 mph68%30.07 "HgN/A
10:00 am59 °FCool.14 mph68%30.04 "HgN/A
9:30 am57 °FCool.14 mph72%30.04 "HgN/A
9:00 am55 °FCool.13 mph77%30.04 "HgN/A
Weather by CustomWeather, © 2019

See weather overview